Regional Weather Roundup
Issued by NWS

Home | Current Version | Previous Version | Graphics & Text | Print | Product List | Glossary On
Versions: 1 2 3 4 5 6 7 8 9 10 11 12 13 14 15 16 17 18 19 20 21 22 23 24 25 26 27 28 29 30 31 32 33 34 35 36
000
ASUS45 KSLC 221210
RWRUT

UTAH REGIONAL WEATHER ROUNDUP
NATIONAL WEATHER SERVICE SALT LAKE CITY UT
600 AM MDT WED OCT 22 2014

UTZ001>011-023>025-221300-

NORTHERN UTAH

CITY           SKY/WX    TMP DP  RH WIND       PRES   REMARKS
BRIGHAM CITY   CLEAR     36  29  76 W5        30.16S WCI  32
HILL AFB       CLEAR     39  28  63 SE16      30.15R WCI  30
LOGAN          CLEAR     31  26  82 CALM      30.17R
OGDEN          CLEAR     36  29  75 S6        30.14S WCI  31
PROVO AIRPORT  CLEAR     37  28  70 SE7       30.16R WCI  32
SALT LAKE CITY CLEAR     41  34  76 SE6       30.15R
VERNAL         CLEAR     41  37  86 W6        30.13R
WENDOVER       PTCLDY    39  28  65 CALM      30.15R
HEBER CITY     CLEAR     27  23  86 CALM      30.18R
WEST JORDAN    CLEAR     41  32  70 SW3       30.16R

$$

UTZ012>022-026-027-221300-

SOUTHERN/CENTRAL UTAH

CITY           SKY/WX    TMP DP  RH WIND       PRES   REMARKS
BLANDING       CLEAR     46  40  78 NE8       30.19R
BRYCE CANYON   PTCLDY    33  30  88 N5        30.20R WCI  29
CEDAR CITY     MOCLDY    40  31  70 CALM      30.13R
DELTA          MOCLDY    35  26  69 SE3       30.14R
HANKSVILLE       N/A     41  32  70 CALM      30.08R
MILFORD        MOCLDY    39  27  62 CALM      30.13R
MOAB/CYNLANDS  CLEAR     50  42  74 S3        30.05R
PRICE          CLEAR     44  30  57 N8        30.11R
ST GEORGE      SUNNY     57  36  44 CALM      30.02R
KANAB            N/A     46  36  66 N6        30.13R

$$

REGIONAL REPORTS     COLORADO/ARIZONA

CITY           SKY/WX    TMP DP  RH WIND       PRES   REMARKS
CRAIG, CO      MOCLDY    37  34  89 CALM      30.15R
GRAND JUNCTION PTCLDY    44  42  93 SE3       30.09R
RIFLE          PTCLDY    45  43  93 CALM      30.14R
MONTROSE       CLOUDY    48  41  76 SE12      30.15R
CORTEZ         CLEAR     37  34  89 SE3       30.15R
PAGE, AZ       CLEAR     57  39  51 W3        30.05R
GRAND CANYON   PTCLDY    31  26  82 CALM      30.18R
KINGMAN        CLEAR     54  40  59 SW3       30.00R
FLAGSTAFF      CLEAR     36  33  89 CALM      30.19S

$$

REGIONAL REPORTS    NEVADA/IDAHO/WYOMING

CITY           SKY/WX    TMP DP  RH WIND       PRES   REMARKS
LAS VEGAS, NV  PTCLDY    63  26  24 SW7       29.91R
ELY            MOCLDY    28  11  48 S10       30.18R WCI  19
ELKO           MOCLDY    29  17  61 CALM      30.15S
POCATELLO, ID  CLEAR     29  27  92 NE3       30.15S
BURLEY         PTCLDY    32  27  81 CALM      30.14R
EVANSTON, WY   PTCLDY    32  24  72 NE5       30.19R WCI  27
ROCK SPRINGS   CLEAR     32  27  81 SW10      30.17R WCI  24

$$



USA.gov is the U.S. government's official web portal to all federal, state and local government web resources and services.